Location: Riedlingen
(48.1569°N, 9.4757°E)
Time: 04:16:51
(UTC+02:00)

ISS - Pass Details

Date: 21 May 2021
Orbit: 417 x 422 km, 51.6° (Epoch: 15 June)

Event Time Altitude Azimuth Distance (km) Brightness Sun altitude
Rises 22:06:46 0° 268° (W) 2,362 0.8 -9.2°
Reaches altitude 10° 22:08:54 10° 275° (W) 1,500 -0.2 -9.4°
Maximum altitude 22:12:11 48° 351° (N) 555 -2.7 -9.8°
Drops below altitude 10° 22:15:29 10° 68° (ENE) 1,506 -1.1 -10.2°
Sets 22:17:38 0° 74° (ENE) 2,372 -0.2 -10.4°
